Home > Weather > Oldenburg > Past weeks

Flag for Germany Weather for the Past 2 Weeks in Oldenburg, Lower Saxony, Germany

Now
36 °F

Fog.


Feels Like: 36 °F
Forecast: 43 / 55 °F
Wind: 1 mph from Northwest

Location: Bremen Airport

Current Time: May 2, 2016 at 6:04:09 AM

Latest Report: May 2, 2016 at 4:50 AM


Visibility: 2 mi

Pressure: 30.30 "Hg

Humidity: 100%

Dew Point: 36 °F

Location of OldenburgLocation

Historic Weather in Oldenburg — Graph

°F

Oldenburg Temperature Yesterday

Maximum temperature yesterday: 57 °F (at 3:20 PM)
Minimum temperature yesterday: 41 °F (at 3:20 AM)
Average temperature yesterday: 48 °F

High & Low Weather Summary for the Past Weeks

 TemperatureHumidityPressure
High57 °F (Apr 21, 2:50 PM)100% (Apr 17, 4:20 AM)30.45 "Hg (Apr 17, 4:20 AM)
Low28 °F (Apr 25, 2:20 AM)41% (Apr 21, 2:20 PM)29.36 "Hg (Apr 26, 12:20 PM)
Average43 °F77%29.98 "Hg
* Reported Apr 17 4:20 AM — May 2 4:20 AM, Oldenburg, Weather by CustomWeather, © 2016

Note: Actual official high and low records may vary slightly from our data, if they occured in-between our weather recording intervals... More about our weather records

Advertising

Oldenburg Weather History for the Previous 24 Hours

Scroll right to see more
 ConditionsComfort  
Time TempWeatherWind HumidityBarometerVisibility
4:20 AM
Mon, May 2
37 °FFog.2 mph100%30.33 "Hg3 mi
3:50 AM37 °FFog.1 mph100%30.33 "Hg2 mi
3:20 AM37 °FChilly.1 mph100%30.33 "Hg0 mi
2:50 AM37 °FChilly.No wind100%30.33 "Hg0 mi
2:20 AM37 °FPassing clouds.2 mph100%30.33 "Hg1 mi
1:50 AM37 °FChilly.2 mph100%30.33 "Hg1 mi
1:20 AM39 °FChilly.No wind93%30.33 "Hg4 mi
12:50 AM41 °FClear.2 mph93%30.33 "Hg10 mi
12:20 AM45 °FPassing clouds.5 mph93%30.33 "HgN/A
11:50 PM
Sun, May 1
45 °FClear.5 mph93%30.33 "Hg10 mi
11:20 PM43 °FClear.2 mph87%30.33 "Hg10 mi
10:50 PM46 °FPassing clouds.5 mph87%30.36 "HgN/A
10:20 PM48 °FClear.6 mph82%30.33 "Hg10 mi
9:50 PM50 °FPassing clouds.6 mph76%30.33 "HgN/A
9:20 PM50 °FPassing clouds.5 mph76%30.33 "HgN/A
8:50 PM50 °FSunny.7 mph76%30.33 "Hg10 mi
8:20 PM54 °FPassing clouds.7 mph67%30.33 "HgN/A
7:50 PM55 °FPassing clouds.9 mph59%30.33 "HgN/A
7:20 PM55 °FPassing clouds.10 mph59%30.30 "HgN/A
6:50 PM57 °FPassing clouds.10 mph55%30.30 "HgN/A
6:20 PM57 °FPassing clouds.10 mph55%30.30 "HgN/A
5:50 PM57 °FScattered clouds.9 mph55%30.30 "HgN/A
5:20 PM57 °FScattered clouds.10 mph55%30.30 "HgN/A
4:50 PM57 °FPassing clouds.10 mph51%30.30 "HgN/A
4:20 PM57 °FPassing clouds.10 mph55%30.30 "HgN/A
3:50 PM57 °FPassing clouds.9 mph55%30.30 "HgN/A
3:20 PM57 °FPassing clouds.8 mph51%30.30 "HgN/A
2:50 PM55 °FPassing clouds.13 mph51%30.30 "HgN/A
2:20 PM54 °FScattered clouds.8 mph54%30.33 "HgN/A
1:50 PM52 °FScattered clouds.9 mph54%30.33 "HgN/A
1:20 PM52 °FPartly sunny.10 mph58%30.33 "HgN/A
12:50 PM50 °FPartly sunny.8 mph67%30.33 "HgN/A
12:20 PM50 °FPartly sunny.9 mph67%30.33 "HgN/A
11:50 AM48 °FPartly sunny.10 mph71%30.33 "HgN/A
11:20 AM48 °FPartly sunny.10 mph71%30.33 "HgN/A
10:20 AM46 °FBroken clouds.9 mph71%30.33 "HgN/A
9:50 AM45 °FBroken clouds.8 mph76%30.33 "HgN/A
8:50 AM43 °FPassing clouds.9 mph81%30.30 "HgN/A
8:20 AM43 °FSunny.9 mph81%30.30 "Hg10 mi
7:50 AM43 °FSunny.10 mph81%30.30 "Hg10 mi
7:20 AM43 °FSunny.10 mph81%30.30 "Hg10 mi
6:20 AM41 °FClear.9 mph87%30.27 "Hg10 mi
Weather by CustomWeather, © 2016

See weather overviewHow to use our weather pages